TVS3216 LKPR-LPPS

Flight info

Callsign TVS3216
Flight time 4h 21m
Altitude 34000
Route BALTU DCT DONAD DCT RAPET Z93 KODUK DCT MARZA DCT LOHRE DCT IDOSA UN857 TOLVU/N0440F330 DCT RAPOR DCT ESTOC UT300 PON/N0443F350 UN872 ERIGA UN741 AZFIC DCT LOTEE DCT AGADO DCT LIDRO
Aircraft B738/M-SDFGHIJ1LORVWXYZ/LB1

Departure

Time 2026-04-26 10:48
Airport Václav Havel Airport Prague (LKPR)

Arrival

Time 2026-04-26 15:09
Airport Porto Santo Airport (LPPS)
Time Latitude Longitude Altitude Speed Heading
2026-04-26 09:58 50.10559 14.26346 1168 ft 0 kts 34°
2026-04-26 10:32 50.10553 14.26340 1173 ft 4 kts 37°
2026-04-26 10:32 50.10535 14.26310 1168 ft 4 kts 64°
2026-04-26 10:33 50.10529 14.26271 1169 ft 4 kts 93°
2026-04-26 10:33 50.10531 14.26247 1168 ft 4 kts 106°
2026-04-26 10:33 50.10514 14.26293 1170 ft 4 kts 125°
2026-04-26 10:34 50.10511 14.26299 1170 ft 1 kts 124°
2026-04-26 10:37 50.10508 14.26305 1171 ft 3 kts 124°
2026-04-26 10:37 50.10481 14.26368 1172 ft 11 kts 124°
2026-04-26 10:37 50.10432 14.26478 1169 ft 13 kts 124°
2026-04-26 10:37 50.10386 14.26586 1170 ft 11 kts 128°
2026-04-26 10:38 50.10328 14.26598 1173 ft 7 kts 208°
2026-04-26 10:38 50.10290 14.26558 1170 ft 7 kts 214°
2026-04-26 10:38 50.10234 14.26540 1174 ft 10 kts 153°
2026-04-26 10:38 50.10181 14.26638 1175 ft 15 kts 127°
2026-04-26 10:39 50.10112 14.26779 1182 ft 17 kts 127°
2026-04-26 10:39 50.10044 14.26920 1191 ft 14 kts 128°
2026-04-26 10:39 50.09993 14.27019 1196 ft 9 kts 127°
2026-04-26 10:39 50.09961 14.27088 1197 ft 8 kts 127°
2026-04-26 10:40 50.09918 14.27181 1200 ft 13 kts 126°
2026-04-26 10:40 50.09850 14.27316 1202 ft 18 kts 134°
2026-04-26 10:40 50.09747 14.27475 1204 ft 23 kts 135°
2026-04-26 10:40 50.09624 14.27668 1208 ft 27 kts 135°
2026-04-26 10:41 50.09485 14.27879 1213 ft 26 kts 135°
2026-04-26 10:41 50.09366 14.28060 1213 ft 21 kts 135°
2026-04-26 10:41 50.09291 14.28176 1213 ft 10 kts 135°
2026-04-26 10:41 50.09234 14.28260 1211 ft 10 kts 145°
2026-04-26 10:42 50.09222 14.28272 1211 ft 0 kts 151°
2026-04-26 10:44 50.09221 14.28273 1211 ft 1 kts 152°
2026-04-26 10:45 50.09186 14.28286 1210 ft 9 kts 179°
2026-04-26 10:45 50.09148 14.28267 1210 ft 0 kts 215°
2026-04-26 10:45 50.09133 14.28249 1210 ft 7 kts 216°
2026-04-26 10:46 50.09086 14.28152 1208 ft 16 kts 254°
2026-04-26 10:46 50.09109 14.28035 1208 ft 0 kts 306°
2026-04-26 10:47 50.09119 14.28013 1209 ft 15 kts 307°
2026-04-26 10:47 50.09327 14.27582 1210 ft 84 kts 307°
2026-04-26 10:47 50.09809 14.26584 1204 ft 144 kts 307°
2026-04-26 10:48 50.10508 14.25127 1353 ft 181 kts 306°
2026-04-26 10:48 50.11256 14.23544 2387 ft 179 kts 306°
2026-04-26 10:48 50.11994 14.22019 3397 ft 177 kts 306°
2026-04-26 10:48 50.12771 14.20408 3878 ft 195 kts 306°
2026-04-26 10:49 50.13630 14.18648 4213 ft 212 kts 307°
2026-04-26 10:49 50.14553 14.16736 4530 ft 232 kts 307°
2026-04-26 10:49 50.15570 14.14590 4932 ft 257 kts 306°
2026-04-26 10:49 50.16643 14.12328 5809 ft 258 kts 307°
2026-04-26 10:50 50.17693 14.10122 6977 ft 249 kts 306°
2026-04-26 10:50 50.18377 14.08675 7534 ft 251 kts 306°
2026-04-26 10:50 50.19779 14.05692 8502 ft 258 kts 306°
2026-04-26 10:50 50.20844 14.03448 9371 ft 256 kts 304°
2026-04-26 10:51 50.21527 14.00865 10011 ft 265 kts 277°
2026-04-26 10:51 50.20617 13.95106 10936 ft 291 kts 255°
2026-04-26 10:51 50.19993 13.91976 11131 ft 313 kts 256°
2026-04-26 10:52 50.19352 13.88612 11298 ft 332 kts 256°
2026-04-26 10:52 50.18694 13.85101 11820 ft 340 kts 256°
2026-04-26 10:52 50.18030 13.81540 12513 ft 342 kts 256°
2026-04-26 10:52 50.17374 13.78017 13246 ft 344 kts 256°
2026-04-26 10:53 50.16707 13.74421 13902 ft 348 kts 256°
2026-04-26 10:53 50.16031 13.70775 14484 ft 351 kts 256°
2026-04-26 10:53 50.15350 13.67111 15084 ft 353 kts 256°
2026-04-26 10:54 50.13971 13.59702 16213 ft 359 kts 256°
2026-04-26 10:54 50.13270 13.55946 16793 ft 362 kts 257°
2026-04-26 10:54 50.12623 13.52486 17312 ft 364 kts 257°
2026-04-26 10:54 50.11910 13.48679 17875 ft 367 kts 257°
2026-04-26 10:55 50.11190 13.44844 18420 ft 371 kts 257°
2026-04-26 10:55 50.10463 13.40977 18923 ft 373 kts 257°
2026-04-26 10:55 50.09730 13.37092 19471 ft 373 kts 257°
2026-04-26 10:55 50.09247 13.34465 19848 ft 373 kts 259°
2026-04-26 10:56 50.08751 13.29206 20536 ft 371 kts 270°
2026-04-26 10:56 50.08673 13.25187 21058 ft 372 kts 270°
2026-04-26 10:56 50.08601 13.21155 21558 ft 373 kts 270°
2026-04-26 10:56 50.08521 13.17108 22039 ft 375 kts 270°
2026-04-26 10:57 50.08429 13.13040 22515 ft 376 kts 269°
2026-04-26 10:57 50.08330 13.08962 23005 ft 378 kts 269°
2026-04-26 10:57 50.08226 13.04867 23470 ft 379 kts 269°
2026-04-26 10:57 50.08230 13.00765 23913 ft 380 kts 275°
2026-04-26 10:58 50.08598 12.96683 24251 ft 382 kts 283°
2026-04-26 10:58 50.09268 12.92668 24595 ft 384 kts 284°
2026-04-26 10:58 50.09962 12.88637 24939 ft 386 kts 284°
2026-04-26 10:58 50.10654 12.84591 25282 ft 388 kts 284°
2026-04-26 10:59 50.11345 12.80514 25607 ft 390 kts 284°
2026-04-26 10:59 50.12032 12.76418 25926 ft 392 kts 284°
2026-04-26 10:59 50.12718 12.72299 26257 ft 394 kts 284°
2026-04-26 10:59 50.13403 12.68161 26562 ft 396 kts 283°
2026-04-26 11:00 50.14090 12.63990 26855 ft 398 kts 283°
2026-04-26 11:00 50.14779 12.59799 27154 ft 400 kts 283°
2026-04-26 11:00 50.15471 12.55580 27448 ft 402 kts 283°
2026-04-26 11:00 50.16163 12.51348 27773 ft 403 kts 283°
2026-04-26 11:01 50.16858 12.47097 28054 ft 406 kts 283°
2026-04-26 11:01 50.17554 12.42823 28322 ft 408 kts 283°
2026-04-26 11:01 50.18251 12.38533 28616 ft 409 kts 283°
2026-04-26 11:01 50.18850 12.34194 28844 ft 411 kts 278°
2026-04-26 11:02 50.19064 12.29802 29127 ft 411 kts 270°
2026-04-26 11:02 50.19030 12.25292 29563 ft 409 kts 269°
2026-04-26 11:02 50.18995 12.20929 30012 ft 406 kts 269°
2026-04-26 11:02 50.18966 12.16528 30382 ft 406 kts 270°
2026-04-26 11:03 50.18943 12.12129 30648 ft 406 kts 270°
2026-04-26 11:03 50.18924 12.07724 30910 ft 406 kts 270°
2026-04-26 11:03 50.18906 12.03330 31199 ft 405 kts 270°
2026-04-26 11:03 50.18887 11.98936 31493 ft 404 kts 270°
2026-04-26 11:04 50.18867 11.94553 31762 ft 404 kts 270°
2026-04-26 11:04 50.18846 11.90166 32022 ft 404 kts 270°
2026-04-26 11:04 50.18822 11.85794 32313 ft 402 kts 270°
2026-04-26 11:04 50.18797 11.81437 32602 ft 402 kts 270°
2026-04-26 11:05 50.18822 11.77070 32804 ft 402 kts 271°
2026-04-26 11:05 50.18888 11.72703 33011 ft 403 kts 272°
2026-04-26 11:05 50.18965 11.68331 33234 ft 403 kts 272°
2026-04-26 11:05 50.19040 11.63948 33425 ft 404 kts 272°
2026-04-26 11:06 50.19110 11.59556 33589 ft 406 kts 271°
2026-04-26 11:06 50.19153 11.56586 33714 ft 406 kts 271°
2026-04-26 11:06 50.19232 11.50737 33999 ft 406 kts 271°
2026-04-26 11:06 50.19287 11.46333 34210 ft 406 kts 271°
2026-04-26 11:07 50.19390 11.37473 34273 ft 410 kts 271°
2026-04-26 11:07 50.19487 11.28602 34285 ft 408 kts 271°
2026-04-26 11:08 50.19577 11.19765 34271 ft 407 kts 271°
2026-04-26 11:08 50.19660 11.10946 34280 ft 406 kts 271°
2026-04-26 11:09 50.19738 11.02128 34275 ft 406 kts 272°
2026-04-26 11:09 50.19751 10.93300 34274 ft 408 kts 266°
2026-04-26 11:10 50.19033 10.84494 34283 ft 411 kts 264°
2026-04-26 11:10 50.18244 10.75636 34286 ft 413 kts 264°
2026-04-26 11:11 50.17598 10.68238 34290 ft 415 kts 264°
2026-04-26 11:11 50.16824 10.59292 34286 ft 417 kts 264°
2026-04-26 11:12 50.16042 10.50302 34287 ft 419 kts 264°
2026-04-26 11:12 50.15250 10.41275 34289 ft 421 kts 264°
2026-04-26 11:13 50.14448 10.32215 34288 ft 422 kts 264°
2026-04-26 11:13 50.13636 10.23146 34281 ft 423 kts 264°
2026-04-26 11:14 50.12816 10.14066 34289 ft 423 kts 264°
2026-04-26 11:14 50.11989 10.04980 34276 ft 423 kts 264°
2026-04-26 11:15 50.11157 9.95909 34279 ft 423 kts 264°
2026-04-26 11:15 50.10318 9.86839 34279 ft 423 kts 264°
2026-04-26 11:16 50.09470 9.77761 34277 ft 423 kts 264°
2026-04-26 11:16 50.08622 9.68746 34263 ft 424 kts 264°
2026-04-26 11:17 50.07763 9.59701 34256 ft 424 kts 264°
2026-04-26 11:17 50.06893 9.50600 34265 ft 423 kts 264°
2026-04-26 11:18 50.06108 9.41518 34265 ft 423 kts 266°
2026-04-26 11:18 50.05450 9.32416 34257 ft 424 kts 266°
2026-04-26 11:19 50.04787 9.23290 34263 ft 425 kts 266°
2026-04-26 11:19 50.04101 9.14164 34268 ft 425 kts 265°
2026-04-26 11:20 50.03517 9.06565 34276 ft 426 kts 265°
2026-04-26 11:20 50.02682 8.95861 34278 ft 427 kts 265°
2026-04-26 11:21 50.01959 8.86704 34286 ft 427 kts 265°
2026-04-26 11:21 50.01229 8.77536 34295 ft 427 kts 265°
2026-04-26 11:22 50.00490 8.68355 34289 ft 428 kts 265°
2026-04-26 11:22 49.99744 8.59181 34282 ft 428 kts 265°
2026-04-26 11:23 49.98994 8.50047 34280 ft 428 kts 265°
2026-04-26 11:23 49.98234 8.40881 34284 ft 428 kts 265°
2026-04-26 11:24 49.97466 8.31720 34291 ft 427 kts 265°
2026-04-26 11:24 49.96693 8.22570 34294 ft 427 kts 265°
2026-04-26 11:25 49.95913 8.13435 34290 ft 427 kts 265°
2026-04-26 11:25 49.95126 8.04303 34292 ft 426 kts 264°
2026-04-26 11:26 49.94333 7.95182 34287 ft 426 kts 264°
2026-04-26 11:26 49.93532 7.86057 34278 ft 426 kts 264°
2026-04-26 11:27 49.92725 7.76951 34273 ft 426 kts 264°
2026-04-26 11:27 49.91909 7.67837 34266 ft 426 kts 264°
2026-04-26 11:28 49.91090 7.58761 34262 ft 427 kts 264°
2026-04-26 11:28 49.90257 7.49606 34271 ft 427 kts 264°
2026-04-26 11:29 49.89418 7.40470 34268 ft 428 kts 264°
2026-04-26 11:29 49.88570 7.31321 34268 ft 429 kts 264°
2026-04-26 11:30 49.87859 7.23711 34267 ft 429 kts 264°
2026-04-26 11:30 49.86849 7.12998 34263 ft 430 kts 263°
2026-04-26 11:31 49.85982 7.03893 34256 ft 430 kts 263°
2026-04-26 11:31 49.85103 6.94734 34252 ft 430 kts 263°
2026-04-26 11:32 49.84216 6.85570 34244 ft 430 kts 263°
2026-04-26 11:32 49.83318 6.76364 34255 ft 429 kts 263°
2026-04-26 11:33 49.82423 6.67282 34235 ft 429 kts 263°
2026-04-26 11:33 49.81516 6.58142 34239 ft 429 kts 263°
2026-04-26 11:34 49.80604 6.49021 34241 ft 429 kts 263°
2026-04-26 11:34 49.79683 6.39892 34244 ft 429 kts 263°
2026-04-26 11:35 49.78755 6.30776 34264 ft 429 kts 263°
2026-04-26 11:35 49.77978 6.23196 34262 ft 429 kts 263°
2026-04-26 11:36 49.76879 6.12552 34260 ft 429 kts 263°
2026-04-26 11:36 49.75931 6.03451 34262 ft 429 kts 263°
2026-04-26 11:37 49.74978 5.94356 34255 ft 428 kts 263°
2026-04-26 11:37 49.73869 5.85300 34248 ft 430 kts 255°
2026-04-26 11:38 49.71850 5.76590 34251 ft 431 kts 252°
2026-04-26 11:38 49.69756 5.67898 34246 ft 431 kts 252°
2026-04-26 11:39 49.67695 5.59200 34246 ft 431 kts 252°
2026-04-26 11:39 49.65677 5.50641 34193 ft 414 kts 253°
2026-04-26 11:40 49.64686 5.46434 33891 ft 424 kts 253°
2026-04-26 11:40 49.63673 5.42140 33518 ft 426 kts 253°
2026-04-26 11:40 49.62653 5.37842 33242 ft 425 kts 253°
2026-04-26 11:40 49.61672 5.33541 33273 ft 428 kts 255°
2026-04-26 11:42 49.55488 4.97587 33248 ft 431 kts 260°
2026-04-26 11:43 49.54138 4.88608 33251 ft 429 kts 260°
2026-04-26 11:43 49.52772 4.79673 33249 ft 428 kts 259°
2026-04-26 11:44 49.51397 4.70763 33255 ft 428 kts 259°
2026-04-26 11:44 49.50013 4.61849 33260 ft 429 kts 259°
2026-04-26 11:45 49.48620 4.52923 33260 ft 430 kts 259°
2026-04-26 11:45 49.47215 4.43969 33276 ft 432 kts 259°
2026-04-26 11:46 49.45798 4.34987 33264 ft 433 kts 259°
2026-04-26 11:46 49.44371 4.25990 33259 ft 433 kts 259°
2026-04-26 11:47 49.42941 4.17029 33257 ft 431 kts 259°
2026-04-26 11:47 49.41510 4.08105 33259 ft 430 kts 259°
2026-04-26 11:48 49.40065 3.99139 33525 ft 433 kts 259°
2026-04-26 11:48 49.39341 3.94667 33793 ft 431 kts 259°
2026-04-26 11:48 49.38616 3.90210 34044 ft 430 kts 259°
2026-04-26 11:49 49.37891 3.85762 34228 ft 430 kts 259°
2026-04-26 11:49 49.37165 3.81317 34396 ft 429 kts 259°
2026-04-26 11:49 49.36439 3.76886 34635 ft 427 kts 259°
2026-04-26 11:49 49.35716 3.72484 34862 ft 425 kts 259°
2026-04-26 11:50 49.34996 3.68109 35097 ft 422 kts 259°
2026-04-26 11:50 49.34277 3.63754 35266 ft 422 kts 259°
2026-04-26 11:50 49.32825 3.54962 35258 ft 428 kts 259°
2026-04-26 11:51 49.31348 3.46073 35261 ft 431 kts 259°
2026-04-26 11:51 49.29860 3.37180 35258 ft 431 kts 259°
2026-04-26 11:52 49.28618 3.29794 35261 ft 431 kts 259°
2026-04-26 11:52 49.26865 3.19414 35251 ft 431 kts 259°
2026-04-26 11:53 49.25359 3.10548 35251 ft 430 kts 259°
2026-04-26 11:54 49.23094 2.97298 35249 ft 428 kts 259°
2026-04-26 11:54 49.21580 2.88495 35251 ft 428 kts 258°
2026-04-26 11:55 49.20060 2.79711 35257 ft 427 kts 258°
2026-04-26 11:55 49.18537 2.70948 35265 ft 426 kts 258°
2026-04-26 11:56 49.17009 2.62191 35261 ft 426 kts 258°
2026-04-26 11:56 49.15479 2.53461 35255 ft 425 kts 258°
2026-04-26 11:57 49.13944 2.44738 35265 ft 425 kts 258°
2026-04-26 11:57 49.12745 2.37470 35258 ft 423 kts 263°
2026-04-26 11:58 49.11793 2.27158 35268 ft 422 kts 265°
2026-04-26 11:58 49.11005 2.18269 35256 ft 423 kts 264°
2026-04-26 11:59 49.10160 2.09391 35263 ft 422 kts 264°
2026-04-26 11:59 49.09152 2.02096 35255 ft 426 kts 254°
2026-04-26 12:00 49.06755 1.93808 35247 ft 426 kts 248°
2026-04-26 12:00 49.04239 1.85646 35275 ft 426 kts 248°
2026-04-26 12:01 49.01730 1.77425 35270 ft 429 kts 248°
2026-04-26 12:01 48.99220 1.69149 35259 ft 431 kts 248°
2026-04-26 12:02 48.96717 1.60911 35257 ft 427 kts 248°
2026-04-26 12:02 48.94223 1.52722 35263 ft 427 kts 248°
2026-04-26 12:03 48.91714 1.44510 35269 ft 429 kts 248°
2026-04-26 12:03 48.89193 1.36285 35264 ft 430 kts 248°
2026-04-26 12:04 48.86656 1.28042 35265 ft 431 kts 248°
2026-04-26 12:04 48.84111 1.19800 35255 ft 431 kts 248°
2026-04-26 12:05 48.81562 1.11570 35258 ft 431 kts 248°
2026-04-26 12:05 48.79010 1.03357 35258 ft 430 kts 248°
2026-04-26 12:06 48.76458 0.95164 35251 ft 429 kts 248°
2026-04-26 12:06 48.73838 0.87050 35245 ft 429 kts 243°
2026-04-26 12:07 48.70765 0.79364 35242 ft 429 kts 241°
2026-04-26 12:07 48.67574 0.71674 35247 ft 428 kts 241°
2026-04-26 12:08 48.64438 0.64043 35248 ft 426 kts 241°
2026-04-26 12:08 48.61349 0.56473 35247 ft 425 kts 241°
2026-04-26 12:09 48.58245 0.48867 35244 ft 425 kts 241°
2026-04-26 12:09 48.55138 0.41274 35237 ft 425 kts 241°
2026-04-26 12:10 48.52025 0.33690 35235 ft 425 kts 241°
2026-04-26 12:10 48.48911 0.26126 35230 ft 425 kts 241°
2026-04-26 12:11 48.45790 0.18566 35230 ft 425 kts 241°
2026-04-26 12:11 48.42667 0.11021 35235 ft 424 kts 240°
2026-04-26 12:12 48.39540 0.03486 35236 ft 424 kts 240°
2026-04-26 12:12 48.36407 -0.04031 35222 ft 424 kts 239°
2026-04-26 12:13 48.32942 -0.11221 35235 ft 425 kts 235°
2026-04-26 12:13 48.29356 -0.18277 35224 ft 424 kts 236°
2026-04-26 12:14 48.25818 -0.25350 35230 ft 423 kts 236°
2026-04-26 12:14 48.22310 -0.32275 35222 ft 422 kts 235°
2026-04-26 12:15 48.18734 -0.39256 35221 ft 422 kts 235°
2026-04-26 12:15 48.15165 -0.46213 35217 ft 420 kts 235°
2026-04-26 12:16 48.11608 -0.53142 35210 ft 419 kts 235°
2026-04-26 12:16 48.08051 -0.60056 35213 ft 419 kts 234°
2026-04-26 12:17 48.04515 -0.66914 35214 ft 419 kts 234°
2026-04-26 12:17 48.00946 -0.73817 35209 ft 420 kts 234°
2026-04-26 12:18 47.97367 -0.80723 35211 ft 421 kts 234°
2026-04-26 12:18 47.93769 -0.87647 35207 ft 423 kts 234°
2026-04-26 12:19 47.90152 -0.94590 35208 ft 425 kts 234°
2026-04-26 12:19 47.86519 -1.01546 35219 ft 426 kts 234°
2026-04-26 12:20 47.82868 -1.08519 35213 ft 428 kts 234°
2026-04-26 12:20 47.79203 -1.15500 35221 ft 429 kts 234°
2026-04-26 12:21 47.75523 -1.22493 35218 ft 429 kts 234°
2026-04-26 12:21 47.71839 -1.29475 35213 ft 430 kts 233°
2026-04-26 12:22 47.68149 -1.36451 35214 ft 429 kts 233°
2026-04-26 12:22 47.64457 -1.43413 35204 ft 429 kts 233°
2026-04-26 12:23 47.60774 -1.50342 35210 ft 427 kts 233°
2026-04-26 12:23 47.56929 -1.57042 35206 ft 427 kts 230°
2026-04-26 12:24 47.52928 -1.63513 35211 ft 425 kts 229°
2026-04-26 12:24 47.48948 -1.69970 35198 ft 424 kts 230°
2026-04-26 12:25 47.43045 -1.79622 35210 ft 423 kts 230°
2026-04-26 12:25 47.39076 -1.86102 35206 ft 422 kts 229°
2026-04-26 12:26 47.35044 -1.92408 35201 ft 424 kts 223°
2026-04-26 12:26 47.30155 -1.97309 35220 ft 426 kts 213°
2026-04-26 12:27 47.25048 -2.01775 35222 ft 427 kts 213°
2026-04-26 12:27 47.19979 -2.06241 35211 ft 428 kts 213°
2026-04-26 12:28 47.14875 -2.10773 35207 ft 429 kts 213°
2026-04-26 12:28 47.09768 -2.15313 35212 ft 430 kts 213°
2026-04-26 12:29 47.04652 -2.19849 35206 ft 430 kts 213°
2026-04-26 12:30 46.96967 -2.26643 35213 ft 430 kts 213°
2026-04-26 12:30 46.91851 -2.31154 35208 ft 429 kts 213°
2026-04-26 12:31 46.86994 -2.36152 35209 ft 425 kts 226°
2026-04-26 12:31 46.84985 -2.39311 35214 ft 424 kts 232°
2026-04-26 12:31 46.81854 -2.46552 35215 ft 422 kts 241°
2026-04-26 12:32 46.78975 -2.54015 35218 ft 422 kts 241°
2026-04-26 12:33 46.74612 -2.65159 35216 ft 422 kts 240°
2026-04-26 12:33 46.71674 -2.72567 35216 ft 422 kts 240°
2026-04-26 12:34 46.68734 -2.79953 35218 ft 422 kts 240°
2026-04-26 12:34 46.65787 -2.87336 35222 ft 421 kts 240°
2026-04-26 12:35 46.62840 -2.94706 35225 ft 421 kts 240°
2026-04-26 12:35 46.59906 -3.02024 35225 ft 421 kts 240°
2026-04-26 12:36 46.56854 -3.09355 35218 ft 422 kts 234°
2026-04-26 12:36 46.52952 -3.15634 35222 ft 422 kts 226°
2026-04-26 12:37 46.48844 -3.21721 35224 ft 422 kts 226°
2026-04-26 12:37 46.44743 -3.27819 35218 ft 422 kts 227°
2026-04-26 12:38 46.40652 -3.33934 35221 ft 422 kts 227°
2026-04-26 12:38 46.36565 -3.40047 35220 ft 423 kts 227°
2026-04-26 12:39 46.32476 -3.46153 35221 ft 423 kts 226°
2026-04-26 12:39 46.28379 -3.52258 35223 ft 423 kts 226°
2026-04-26 12:40 46.24277 -3.58353 35220 ft 423 kts 226°
2026-04-26 12:40 46.20177 -3.64432 35217 ft 423 kts 226°
2026-04-26 12:41 46.16072 -3.70506 35219 ft 423 kts 226°
2026-04-26 12:41 46.11963 -3.76571 35219 ft 423 kts 226°
2026-04-26 12:42 46.07853 -3.82623 35221 ft 422 kts 226°
2026-04-26 12:42 46.03740 -3.88666 35218 ft 422 kts 226°
2026-04-26 12:43 45.99625 -3.94699 35217 ft 422 kts 226°
2026-04-26 12:43 45.95510 -4.00718 35217 ft 422 kts 226°
2026-04-26 12:44 45.91393 -4.06727 35218 ft 422 kts 226°
2026-04-26 12:44 45.87273 -4.12726 35213 ft 422 kts 226°
2026-04-26 12:45 45.83151 -4.18715 35214 ft 422 kts 226°
2026-04-26 12:45 45.79026 -4.24695 35214 ft 422 kts 226°
2026-04-26 12:46 45.74922 -4.30630 35216 ft 422 kts 226°
2026-04-26 12:46 45.70789 -4.36595 35216 ft 422 kts 226°
2026-04-26 12:47 45.66655 -4.42548 35217 ft 422 kts 226°
2026-04-26 12:47 45.62511 -4.48498 35219 ft 422 kts 226°
2026-04-26 12:48 45.59035 -4.53477 35220 ft 422 kts 226°
2026-04-26 12:48 45.54909 -4.59377 35221 ft 423 kts 226°
2026-04-26 12:49 45.50755 -4.65309 35221 ft 423 kts 225°
2026-04-26 12:49 45.46595 -4.71236 35220 ft 423 kts 225°
2026-04-26 12:50 45.42429 -4.77159 35216 ft 423 kts 225°
2026-04-26 12:50 45.38259 -4.83073 35217 ft 423 kts 225°
2026-04-26 12:51 45.34085 -4.88980 35219 ft 423 kts 225°
2026-04-26 12:51 45.29906 -4.94883 35220 ft 424 kts 225°
2026-04-26 12:52 45.25722 -5.00778 35220 ft 424 kts 225°
2026-04-26 12:52 45.21534 -5.06667 35219 ft 424 kts 225°
2026-04-26 12:53 45.17346 -5.12543 35220 ft 424 kts 225°
2026-04-26 12:53 45.13145 -5.18424 35214 ft 424 kts 225°
2026-04-26 12:54 45.08942 -5.24295 35217 ft 424 kts 225°
2026-04-26 12:54 45.04734 -5.30159 35220 ft 425 kts 225°
2026-04-26 12:55 45.00521 -5.36019 35223 ft 425 kts 225°
2026-04-26 12:55 44.96305 -5.41869 35221 ft 425 kts 225°
2026-04-26 12:56 44.92081 -5.47719 35221 ft 425 kts 225°
2026-04-26 12:56 44.87883 -5.53520 35219 ft 425 kts 225°
2026-04-26 12:57 44.83650 -5.59356 35221 ft 426 kts 225°
2026-04-26 12:57 44.79384 -5.65226 35217 ft 426 kts 225°
2026-04-26 12:58 44.73056 -5.73909 35216 ft 426 kts 225°
2026-04-26 12:58 44.68784 -5.79759 35215 ft 426 kts 225°
2026-04-26 12:59 44.64520 -5.85452 35209 ft 426 kts 222°
2026-04-26 12:59 44.59988 -5.90827 35219 ft 426 kts 220°
2026-04-26 13:00 44.55405 -5.96110 35223 ft 427 kts 220°
2026-04-26 13:00 44.50832 -6.01413 35208 ft 427 kts 220°
2026-04-26 13:01 44.46270 -6.06732 35207 ft 427 kts 220°
2026-04-26 13:01 44.41710 -6.12055 35219 ft 427 kts 220°
2026-04-26 13:02 44.37149 -6.17370 35209 ft 427 kts 220°
2026-04-26 13:02 44.32584 -6.22679 35209 ft 427 kts 220°
2026-04-26 13:03 44.28018 -6.27977 35211 ft 427 kts 220°
2026-04-26 13:03 44.23449 -6.33267 35210 ft 427 kts 220°
2026-04-26 13:04 44.18874 -6.38553 35216 ft 427 kts 220°
2026-04-26 13:04 44.14301 -6.43825 35214 ft 427 kts 220°
2026-04-26 13:05 44.09727 -6.49087 35210 ft 427 kts 220°
2026-04-26 13:05 44.05150 -6.54343 35208 ft 427 kts 220°
2026-04-26 13:06 44.00571 -6.59589 35208 ft 427 kts 220°
2026-04-26 13:06 43.95990 -6.64828 35210 ft 427 kts 220°
2026-04-26 13:07 43.91407 -6.70057 35210 ft 427 kts 220°
2026-04-26 13:07 43.86819 -6.75281 35208 ft 427 kts 220°
2026-04-26 13:08 43.82230 -6.80496 35205 ft 427 kts 220°
2026-04-26 13:08 43.77636 -6.85706 35203 ft 427 kts 220°
2026-04-26 13:09 43.73038 -6.90909 35205 ft 427 kts 220°
2026-04-26 13:09 43.68433 -6.96111 35201 ft 428 kts 220°
2026-04-26 13:10 43.63858 -7.01267 35204 ft 428 kts 220°
2026-04-26 13:10 43.59242 -7.06460 35199 ft 428 kts 220°
2026-04-26 13:11 43.54626 -7.11641 35193 ft 428 kts 220°
2026-04-26 13:11 43.50000 -7.16824 35188 ft 429 kts 220°
2026-04-26 13:12 43.45367 -7.22003 35187 ft 429 kts 220°
2026-04-26 13:12 43.40727 -7.27180 35178 ft 430 kts 220°
2026-04-26 13:13 43.36077 -7.32357 35170 ft 430 kts 220°
2026-04-26 13:13 43.31426 -7.37525 35165 ft 430 kts 220°
2026-04-26 13:14 43.26766 -7.42692 35160 ft 431 kts 220°
2026-04-26 13:14 43.22104 -7.47852 35159 ft 431 kts 219°
2026-04-26 13:15 43.17434 -7.53010 35143 ft 431 kts 219°
2026-04-26 13:15 43.13550 -7.57290 35138 ft 431 kts 219°
2026-04-26 13:16 43.08087 -7.63301 35131 ft 431 kts 219°
2026-04-26 13:16 43.03409 -7.68436 35136 ft 431 kts 219°
2026-04-26 13:17 42.96393 -7.76118 35129 ft 431 kts 219°
2026-04-26 13:18 42.89396 -7.83757 35123 ft 432 kts 219°
2026-04-26 13:19 42.82351 -7.91425 35133 ft 433 kts 219°
2026-04-26 13:19 42.77642 -7.96537 35127 ft 433 kts 219°
2026-04-26 13:20 42.72931 -8.01642 35130 ft 433 kts 219°
2026-04-26 13:20 42.68217 -8.06739 35124 ft 433 kts 219°
2026-04-26 13:21 42.63496 -8.11835 35129 ft 433 kts 219°
2026-04-26 13:21 42.58774 -8.16920 35121 ft 434 kts 219°
2026-04-26 13:22 42.54049 -8.21999 35124 ft 433 kts 219°
2026-04-26 13:22 42.49322 -8.27071 35119 ft 433 kts 219°
2026-04-26 13:23 42.44592 -8.32134 35116 ft 433 kts 219°
2026-04-26 13:23 42.39863 -8.37188 35125 ft 433 kts 219°
2026-04-26 13:24 42.35131 -8.42234 35125 ft 433 kts 219°
2026-04-26 13:24 42.30397 -8.47273 35127 ft 433 kts 219°
2026-04-26 13:25 42.25660 -8.52305 35129 ft 433 kts 218°
2026-04-26 13:25 42.20950 -8.57298 35125 ft 433 kts 218°
2026-04-26 13:26 42.16211 -8.62312 35133 ft 433 kts 218°
2026-04-26 13:26 42.11434 -8.67358 35123 ft 434 kts 218°
2026-04-26 13:27 42.06683 -8.72366 35125 ft 434 kts 218°
2026-04-26 13:27 42.01959 -8.77334 35125 ft 434 kts 218°
2026-04-26 13:28 41.97198 -8.82334 35126 ft 434 kts 218°
2026-04-26 13:28 41.92435 -8.87327 35119 ft 435 kts 218°
2026-04-26 13:29 41.87664 -8.92318 35124 ft 435 kts 218°
2026-04-26 13:29 41.82826 -8.97193 35123 ft 435 kts 217°
2026-04-26 13:30 41.77930 -9.01968 35128 ft 435 kts 216°
2026-04-26 13:30 41.73028 -9.06741 35123 ft 436 kts 217°
2026-04-26 13:31 41.68132 -9.11525 35130 ft 436 kts 217°
2026-04-26 13:31 41.63237 -9.16309 35134 ft 436 kts 217°
2026-04-26 13:32 41.58334 -9.21096 35132 ft 436 kts 217°
2026-04-26 13:32 41.53432 -9.25872 35135 ft 436 kts 217°
2026-04-26 13:33 41.48526 -9.30643 35125 ft 436 kts 217°
2026-04-26 13:33 41.43619 -9.35404 35131 ft 436 kts 217°
2026-04-26 13:34 41.38714 -9.40157 35135 ft 436 kts 217°
2026-04-26 13:34 41.34635 -9.44100 35134 ft 436 kts 217°
2026-04-26 13:35 41.29726 -9.48840 35135 ft 436 kts 216°
2026-04-26 13:35 41.24819 -9.53566 35127 ft 436 kts 217°
2026-04-26 13:36 41.19914 -9.58283 35133 ft 435 kts 216°
2026-04-26 13:36 41.15006 -9.62994 35128 ft 435 kts 216°
2026-04-26 13:37 41.10100 -9.67694 35140 ft 435 kts 216°
2026-04-26 13:37 41.05188 -9.72391 35139 ft 435 kts 216°
2026-04-26 13:38 41.00279 -9.77076 35140 ft 435 kts 216°
2026-04-26 13:38 40.95363 -9.81758 35148 ft 435 kts 216°
2026-04-26 13:39 40.90439 -9.86440 35146 ft 436 kts 216°
2026-04-26 13:39 40.85511 -9.91117 35143 ft 436 kts 216°
2026-04-26 13:40 40.80574 -9.95793 35140 ft 437 kts 216°
2026-04-26 13:40 40.75627 -10.00471 35140 ft 438 kts 216°
2026-04-26 13:41 40.70677 -10.05142 35140 ft 438 kts 216°
2026-04-26 13:41 40.65716 -10.09815 35152 ft 438 kts 216°
2026-04-26 13:42 40.60751 -10.14484 35150 ft 439 kts 216°
2026-04-26 13:42 40.55775 -10.19154 35146 ft 439 kts 216°
2026-04-26 13:43 40.50799 -10.23815 35149 ft 439 kts 216°
2026-04-26 13:43 40.45814 -10.28475 35155 ft 440 kts 216°
2026-04-26 13:44 40.40833 -10.33123 35151 ft 439 kts 216°
2026-04-26 13:44 40.35848 -10.37766 35154 ft 439 kts 216°
2026-04-26 13:45 40.30899 -10.42368 35154 ft 439 kts 216°
2026-04-26 13:45 40.25922 -10.46988 35155 ft 438 kts 216°
2026-04-26 13:46 40.20947 -10.51596 35158 ft 438 kts 216°
2026-04-26 13:46 40.15977 -10.56191 35156 ft 437 kts 216°
2026-04-26 13:47 40.11013 -10.60773 35160 ft 437 kts 216°
2026-04-26 13:47 40.06051 -10.65344 35157 ft 436 kts 216°
2026-04-26 13:48 40.01092 -10.69905 35156 ft 436 kts 216°
2026-04-26 13:48 39.96141 -10.74450 35162 ft 435 kts 216°
2026-04-26 13:49 39.91193 -10.78983 35161 ft 434 kts 216°
2026-04-26 13:49 39.86249 -10.83505 35157 ft 434 kts 216°
2026-04-26 13:50 39.81314 -10.88011 35161 ft 433 kts 216°
2026-04-26 13:50 39.76381 -10.92507 35157 ft 433 kts 216°
2026-04-26 13:51 39.71453 -10.96991 35165 ft 432 kts 216°
2026-04-26 13:51 39.66526 -11.01465 35166 ft 432 kts 216°
2026-04-26 13:52 39.61604 -11.05927 35158 ft 432 kts 216°
2026-04-26 13:52 39.56716 -11.10351 35166 ft 431 kts 216°
2026-04-26 13:53 39.51797 -11.14794 35168 ft 431 kts 216°
2026-04-26 13:53 39.46878 -11.19230 35151 ft 431 kts 216°
2026-04-26 13:54 39.41963 -11.23654 35161 ft 430 kts 216°
2026-04-26 13:54 39.37048 -11.28070 35167 ft 430 kts 216°
2026-04-26 13:55 39.30505 -11.33937 35166 ft 430 kts 216°
2026-04-26 13:56 39.22301 -11.41276 35162 ft 430 kts 216°
2026-04-26 13:56 39.17386 -11.45662 35163 ft 430 kts 216°
2026-04-26 13:57 39.12472 -11.50039 35166 ft 429 kts 216°
2026-04-26 13:57 39.07559 -11.54408 35162 ft 429 kts 216°
2026-04-26 13:58 39.02646 -11.58770 35166 ft 429 kts 216°
2026-04-26 13:58 38.97733 -11.63124 35165 ft 429 kts 216°
2026-04-26 13:59 38.92821 -11.67469 35165 ft 429 kts 216°
2026-04-26 13:59 38.87911 -11.71806 35162 ft 428 kts 216°
2026-04-26 14:00 38.78088 -11.80460 35164 ft 428 kts 215°
2026-04-26 14:01 38.73207 -11.84749 35163 ft 428 kts 215°
2026-04-26 14:01 38.68263 -11.89086 35166 ft 428 kts 215°
2026-04-26 14:02 38.63384 -11.93358 35166 ft 428 kts 215°
2026-04-26 14:02 38.58472 -11.97653 35166 ft 428 kts 215°
2026-04-26 14:03 38.53560 -12.01940 35168 ft 428 kts 215°
2026-04-26 14:03 38.48648 -12.06219 35166 ft 427 kts 215°
2026-04-26 14:04 38.43733 -12.10494 35168 ft 427 kts 215°
2026-04-26 14:04 38.38818 -12.14763 35163 ft 427 kts 215°
2026-04-26 14:05 38.33908 -12.19019 35167 ft 427 kts 214°
2026-04-26 14:05 38.28997 -12.23270 35172 ft 427 kts 214°
2026-04-26 14:06 38.24082 -12.27516 35166 ft 427 kts 214°
2026-04-26 14:06 38.19169 -12.31755 35165 ft 427 kts 214°
2026-04-26 14:07 38.14254 -12.35987 35167 ft 427 kts 214°
2026-04-26 14:07 38.09337 -12.40214 35168 ft 427 kts 214°
2026-04-26 14:08 38.04419 -12.44436 35169 ft 427 kts 214°
2026-04-26 14:08 37.99502 -12.48650 35171 ft 427 kts 214°
2026-04-26 14:09 37.94584 -12.52857 35167 ft 427 kts 214°
2026-04-26 14:09 37.89664 -12.57059 35168 ft 426 kts 213°
2026-04-26 14:10 37.84745 -12.61254 35169 ft 427 kts 213°
2026-04-26 14:10 37.79822 -12.65445 35171 ft 427 kts 213°
2026-04-26 14:11 37.72430 -12.71725 35167 ft 427 kts 213°
2026-04-26 14:11 37.67500 -12.75905 35167 ft 427 kts 213°
2026-04-26 14:12 37.62564 -12.80083 35167 ft 427 kts 213°
2026-04-26 14:12 37.57623 -12.84258 35165 ft 428 kts 213°
2026-04-26 14:13 37.50199 -12.90520 35168 ft 428 kts 213°
2026-04-26 14:14 37.45278 -12.94662 35168 ft 429 kts 213°
2026-04-26 14:14 37.40311 -12.98836 35168 ft 429 kts 213°
2026-04-26 14:15 37.35337 -13.03008 35167 ft 430 kts 213°
2026-04-26 14:15 37.30356 -13.07180 35170 ft 431 kts 213°
2026-04-26 14:16 37.25367 -13.11352 35168 ft 431 kts 213°
2026-04-26 14:16 37.20336 -13.15553 35169 ft 432 kts 212°
2026-04-26 14:17 37.15363 -13.19698 35168 ft 433 kts 213°
2026-04-26 14:17 37.10348 -13.23871 35164 ft 433 kts 212°
2026-04-26 14:18 37.05320 -13.28049 35166 ft 434 kts 212°
2026-04-26 14:18 37.00284 -13.32226 35165 ft 435 kts 212°
2026-04-26 14:19 36.95239 -13.36404 35168 ft 435 kts 212°
2026-04-26 14:19 36.90186 -13.40583 35166 ft 436 kts 212°
2026-04-26 14:20 36.85125 -13.44760 35163 ft 436 kts 212°
2026-04-26 14:20 36.80064 -13.48931 35158 ft 435 kts 212°
2026-04-26 14:21 36.75038 -13.53068 35165 ft 431 kts 212°
2026-04-26 14:21 36.70889 -13.56477 35166 ft 430 kts 212°
2026-04-26 14:22 36.65893 -13.60573 35170 ft 431 kts 212°
2026-04-26 14:22 36.60868 -13.64686 35178 ft 435 kts 212°
2026-04-26 14:23 36.55795 -13.68832 35166 ft 438 kts 212°
2026-04-26 14:23 36.50693 -13.72997 35166 ft 440 kts 212°
2026-04-26 14:24 36.45565 -13.77178 35149 ft 440 kts 212°
2026-04-26 14:24 36.40448 -13.81344 35161 ft 440 kts 212°
2026-04-26 14:25 36.35339 -13.85496 35154 ft 438 kts 212°
2026-04-26 14:25 36.30268 -13.89610 35157 ft 433 kts 212°
2026-04-26 14:26 36.25243 -13.93682 35155 ft 430 kts 212°
2026-04-26 14:26 36.20283 -13.97694 35163 ft 427 kts 212°
2026-04-26 14:27 36.15291 -14.01724 35160 ft 424 kts 212°
2026-04-26 14:27 36.10383 -14.05681 35178 ft 426 kts 212°
2026-04-26 14:28 36.05377 -14.09712 35172 ft 432 kts 211°
2026-04-26 14:28 36.00302 -14.13789 35169 ft 438 kts 211°
2026-04-26 14:29 35.95170 -14.17909 35165 ft 442 kts 211°
2026-04-26 14:29 35.90034 -14.22027 35149 ft 439 kts 211°
2026-04-26 14:30 35.84924 -14.26116 35160 ft 437 kts 211°
2026-04-26 14:30 35.79866 -14.30157 35148 ft 430 kts 211°
2026-04-26 14:31 35.74869 -14.34143 35153 ft 426 kts 211°
2026-04-26 14:31 35.69875 -14.38120 35173 ft 430 kts 211°
2026-04-26 14:32 35.64828 -14.42130 35174 ft 434 kts 211°
2026-04-26 14:32 35.59705 -14.46196 35163 ft 442 kts 211°
2026-04-26 14:33 35.54506 -14.50319 35156 ft 446 kts 211°
2026-04-26 14:33 35.49309 -14.54435 35153 ft 444 kts 211°
2026-04-26 14:34 35.44133 -14.58527 35148 ft 440 kts 211°
2026-04-26 14:34 35.39015 -14.62565 35151 ft 436 kts 211°
2026-04-26 14:35 35.33934 -14.66568 35149 ft 433 kts 211°
2026-04-26 14:35 35.28851 -14.70566 35165 ft 436 kts 211°
2026-04-26 14:36 35.23709 -14.74604 35166 ft 442 kts 211°
2026-04-26 14:36 35.18511 -14.78680 35162 ft 445 kts 212°
2026-04-26 14:37 35.13281 -14.82776 35150 ft 447 kts 212°
2026-04-26 14:37 35.08065 -14.86855 35142 ft 443 kts 212°
2026-04-26 14:38 35.02947 -14.90850 35141 ft 437 kts 212°
2026-04-26 14:38 34.97851 -14.94823 35138 ft 433 kts 211°
2026-04-26 14:39 34.92759 -14.98785 35163 ft 436 kts 212°
2026-04-26 14:39 34.87615 -15.02782 35163 ft 441 kts 212°
2026-04-26 14:40 34.82414 -15.06817 35154 ft 445 kts 212°
2026-04-26 14:40 34.77185 -15.10869 35147 ft 446 kts 212°
2026-04-26 14:41 34.71951 -15.14919 35144 ft 445 kts 211°
2026-04-26 14:41 34.66762 -15.18928 35133 ft 438 kts 211°
2026-04-26 14:42 34.61641 -15.22879 35144 ft 435 kts 211°
2026-04-26 14:42 34.56543 -15.26805 35152 ft 434 kts 211°
2026-04-26 14:43 34.51447 -15.30722 35155 ft 434 kts 211°
2026-04-26 14:43 34.46317 -15.34661 35159 ft 439 kts 211°
2026-04-26 14:44 34.41137 -15.38633 35159 ft 442 kts 211°
2026-04-26 14:44 34.35918 -15.42629 35147 ft 445 kts 211°
2026-04-26 14:45 34.30692 -15.46624 35140 ft 444 kts 211°
2026-04-26 14:45 34.25491 -15.50595 35134 ft 440 kts 211°
2026-04-26 14:46 34.20355 -15.54510 35139 ft 435 kts 211°
2026-04-26 14:46 34.15250 -15.58395 35147 ft 433 kts 211°
2026-04-26 14:47 34.10154 -15.62267 35144 ft 433 kts 211°
2026-04-26 14:47 34.04984 -15.65975 35127 ft 432 kts 200°
2026-04-26 14:47 34.02071 -15.66822 35058 ft 434 kts 184°
2026-04-26 14:48 33.99050 -15.66658 34870 ft 438 kts 171°
2026-04-26 14:48 33.96042 -15.65980 34700 ft 442 kts 168°
2026-04-26 14:48 33.93037 -15.65169 34507 ft 443 kts 167°
2026-04-26 14:48 33.90042 -15.64317 34314 ft 442 kts 167°
2026-04-26 14:49 33.87055 -15.63456 34120 ft 441 kts 167°
2026-04-26 14:49 33.84071 -15.62590 33898 ft 440 kts 167°
2026-04-26 14:49 33.81091 -15.61722 33625 ft 441 kts 167°
2026-04-26 14:49 33.78110 -15.60852 33355 ft 442 kts 167°
2026-04-26 14:50 33.75162 -15.59991 33095 ft 442 kts 167°
2026-04-26 14:50 33.72170 -15.59116 32833 ft 443 kts 167°
2026-04-26 14:50 33.69176 -15.58239 32576 ft 444 kts 167°
2026-04-26 14:50 33.66129 -15.57346 32316 ft 444 kts 167°
2026-04-26 14:51 33.63124 -15.56465 32059 ft 445 kts 167°
2026-04-26 14:51 33.60113 -15.55581 31810 ft 446 kts 167°
2026-04-26 14:51 33.57132 -15.54705 31556 ft 447 kts 167°
2026-04-26 14:51 33.54072 -15.53805 31298 ft 446 kts 167°
2026-04-26 14:52 33.51077 -15.52924 30799 ft 441 kts 167°
2026-04-26 14:52 33.48092 -15.52046 30079 ft 443 kts 167°
2026-04-26 14:52 33.45083 -15.51162 29122 ft 447 kts 167°
2026-04-26 14:52 33.42038 -15.50738 28033 ft 452 kts 184°
2026-04-26 14:53 33.38977 -15.51603 26949 ft 457 kts 204°
2026-04-26 14:53 33.36328 -15.53709 25888 ft 461 kts 225°
2026-04-26 14:53 33.34277 -15.56662 25062 ft 462 kts 231°
2026-04-26 14:53 33.32188 -15.59564 24425 ft 458 kts 227°
2026-04-26 14:54 33.30019 -15.62320 23815 ft 453 kts 226°
2026-04-26 14:54 33.27818 -15.65000 23064 ft 451 kts 225°
2026-04-26 14:54 33.25614 -15.67648 22315 ft 448 kts 225°
2026-04-26 14:54 33.23428 -15.70277 21619 ft 444 kts 225°
2026-04-26 14:55 33.21264 -15.72894 20937 ft 441 kts 225°
2026-04-26 14:55 33.19122 -15.75498 20293 ft 438 kts 225°
2026-04-26 14:55 33.17002 -15.78084 19662 ft 434 kts 225°
2026-04-26 14:55 33.14897 -15.80656 19042 ft 431 kts 225°
2026-04-26 14:56 33.12807 -15.83210 18427 ft 429 kts 225°
2026-04-26 14:56 33.10745 -15.85728 17633 ft 419 kts 225°
2026-04-26 14:56 33.08721 -15.88198 16580 ft 415 kts 225°
2026-04-26 14:56 33.06704 -15.90658 15489 ft 414 kts 225°
2026-04-26 14:57 33.04699 -15.93102 14613 ft 409 kts 225°
2026-04-26 14:57 33.02727 -15.95503 13716 ft 403 kts 224°
2026-04-26 14:57 33.00771 -15.97883 12685 ft 400 kts 224°
2026-04-26 14:57 32.98837 -16.00235 11808 ft 394 kts 224°
2026-04-26 14:58 32.96927 -16.02556 10899 ft 390 kts 225°
2026-04-26 14:58 32.95045 -16.04844 10290 ft 380 kts 225°
2026-04-26 14:58 32.93252 -16.07020 10129 ft 357 kts 224°
2026-04-26 14:58 32.91561 -16.09069 9983 ft 337 kts 224°
2026-04-26 14:59 32.89965 -16.10999 9841 ft 319 kts 224°
2026-04-26 14:59 32.88448 -16.12832 9608 ft 304 kts 224°
2026-04-26 14:59 32.86980 -16.14604 8976 ft 301 kts 224°
2026-04-26 14:59 32.86116 -16.15892 8442 ft 303 kts 241°
2026-04-26 15:00 32.85435 -16.19083 7683 ft 295 kts 268°
2026-04-26 15:00 32.85379 -16.21507 7086 ft 293 kts 269°
2026-04-26 15:00 32.85341 -16.23883 6683 ft 280 kts 269°
2026-04-26 15:00 32.85210 -16.26175 5969 ft 278 kts 255°
2026-04-26 15:01 32.84360 -16.28201 5250 ft 276 kts 227°
2026-04-26 15:01 32.82843 -16.29497 4537 ft 272 kts 198°
2026-04-26 15:01 32.81020 -16.29885 3886 ft 265 kts 182°
2026-04-26 15:01 32.79294 -16.30531 3487 ft 256 kts 213°
2026-04-26 15:02 32.78101 -16.31964 3320 ft 234 kts 243°
2026-04-26 15:02 32.77648 -16.33684 3180 ft 206 kts 272°
2026-04-26 15:02 32.77984 -16.35193 3016 ft 180 kts 311°
2026-04-26 15:02 32.78878 -16.36140 2981 ft 170 kts 336°
2026-04-26 15:03 32.79985 -16.36506 3003 ft 165 kts 359°
2026-04-26 15:03 32.81077 -16.36139 3035 ft 165 kts 22°
2026-04-26 15:03 32.82157 -16.35595 2993 ft 168 kts 20°
2026-04-26 15:03 32.83227 -16.35069 2982 ft 165 kts 20°
2026-04-26 15:04 32.84284 -16.34547 2992 ft 164 kts 21°
2026-04-26 15:04 32.85355 -16.34118 2984 ft 165 kts
2026-04-26 15:04 32.86511 -16.34199 2983 ft 165 kts 358°
2026-04-26 15:04 32.87658 -16.34249 2993 ft 165 kts 359°
2026-04-26 15:05 32.88807 -16.34292 2997 ft 165 kts 359°
2026-04-26 15:05 32.89194 -16.34308 2992 ft 165 kts 359°
2026-04-26 15:05 32.91116 -16.34387 3009 ft 168 kts 358°
2026-04-26 15:05 32.92294 -16.34430 2886 ft 171 kts 358°
2026-04-26 15:06 32.93456 -16.34476 2707 ft 169 kts 358°
2026-04-26 15:06 32.94623 -16.34521 2488 ft 164 kts 359°
2026-04-26 15:06 32.95739 -16.34564 2250 ft 156 kts 359°
2026-04-26 15:06 32.96764 -16.34603 2076 ft 143 kts 358°
2026-04-26 15:07 32.98684 -16.34680 1683 ft 136 kts 359°
2026-04-26 15:07 32.99639 -16.34714 1520 ft 138 kts 358°
2026-04-26 15:07 33.00599 -16.34755 1390 ft 140 kts 359°
2026-04-26 15:08 33.01593 -16.34793 1161 ft 143 kts 359°
2026-04-26 15:08 33.02590 -16.34832 947 ft 143 kts
2026-04-26 15:08 33.03263 -16.34860 818 ft 142 kts
2026-04-26 15:08 33.04232 -16.34894 632 ft 143 kts
2026-04-26 15:09 33.05232 -16.34921 435 ft 142 kts
2026-04-26 15:09 33.06219 -16.34953 252 ft 141 kts
2026-04-26 15:09 33.07072 -16.34983 249 ft 95 kts 359°
2026-04-26 15:09 33.07514 -16.35001 245 ft 32 kts 358°
2026-04-26 15:10 33.07611 -16.35005 245 ft 14 kts 358°
2026-04-26 15:10 33.07697 -16.35008 245 ft 23 kts 358°
2026-04-26 15:10 33.07983 -16.35015 242 ft 32 kts
2026-04-26 15:10 33.08136 -16.34914 247 ft 20 kts
2026-04-26 15:11 33.08142 -16.35014 246 ft 16 kts 201°
2026-04-26 15:11 33.08017 -16.35016 243 ft 21 kts 178°
2026-04-26 15:11 33.07840 -16.35009 242 ft 29 kts 178°
2026-04-26 15:11 33.07628 -16.35000 245 ft 32 kts 178°
2026-04-26 15:12 33.07404 -16.34992 248 ft 33 kts 178°
2026-04-26 15:12 33.07176 -16.34983 250 ft 30 kts 178°
2026-04-26 15:12 33.06997 -16.34975 250 ft 14 kts 176°
2026-04-26 15:12 33.06961 -16.34906 248 ft 11 kts 88°
2026-04-26 15:13 33.06964 -16.34812 248 ft 11 kts 88°
2026-04-26 15:13 33.06967 -16.34742 248 ft 5 kts 85°
2026-04-26 15:13 33.06970 -16.34702 248 ft 5 kts 86°
2026-04-26 15:13 33.06971 -16.34667 248 ft 4 kts 88°
2026-04-26 15:14 33.06973 -16.34624 248 ft 6 kts 82°
2026-04-26 15:14 33.06980 -16.34614 248 ft 1 kts 33°
2026-04-26 15:14 33.06985 -16.34615 248 ft 0 kts 355°
2026-04-26 15:14 33.06988 -16.34617 248 ft 0 kts 336°
2026-04-26 15:15 33.06990 -16.34620 248 ft 1 kts 312°
2026-04-26 15:15 33.06992 -16.34625 248 ft 0 kts 306°
2026-04-26 15:15 33.06995 -16.34629 248 ft 1 kts 309°
2026-04-26 15:15 33.06999 -16.34635 248 ft 0 kts 310°